Hamilton Island Airport, Australia

8:27 AM AEST on August 29, 2016 (GMT +1000)
Hamilton Island

Weather History for YBHM - November, 2012

Change the Weather History Date:

Friday, November 30, 2012

  Actual Average Record
Temperature  
Mean Temperature 80 °F -  
Max Temperature 84 °F - - ()
Min Temperature 76 °F - - ()
Cooling Degree Days 15    
Growing Degree Days 30 (Base 50)    
Moisture  
Dew Point 66 °F    
Average Humidity 64    
Maximum Humidity 74    
Minimum Humidity 44    
Precipitation  
Precipitation 0.00 in - - ()
Sea Level Pressure  
Sea Level Pressure 29.96 in    
Wind  
Wind Speed 16 mph ()    
Max Wind Speed 23 mph    
Max Gust Speed -    
T = Trace of Precipitation, MM = Missing Value Source: Averaged Metar Reports

Daily Weather History Graph

Daily Weather History Graph

Search for Another Location

Airport or City:

Trip Planner

Search our weather history database for the weather conditions in past years. The results will help you decide how hot, cold, wet, or windy it might be!

Date:

Astronomy

Nov. 30, 2012 Rise Set
Actual Time 5:15 AM AEST 6:30 PM AEST
Civil Twilight 4:50 AM AEST 6:55 PM AEST
Nautical Twilight 4:22 AM AEST 7:23 PM AEST
Astronomical Twilight 3:52 AM AEST 7:53 PM AEST
Moon 7:49 PM AEST (11/30) 6:17 AM AEST (11/30)
Length of Visible Light 14h 04m
Length of Day
13h 15m
Full, 98% of the Moon is Illuminated
Nov 30
Full
Dec 7
Last Quarter
Dec 13
New
Dec 20
First Quarter
Dec 28
Full

Hourly Weather History & Observations

Time (AEST) Temp. Heat Index Dew Point Humidity Pressure Visibility Wind Dir Wind Speed Gust Speed Precip Events Conditions
12:00 AM 77 °F - 67 °F 64% 29.96 in - ESE 17.3 mph - -  
12:00 AM 77.0 °F - 66.2 °F 69% 29.95 in - ESE 17.3 mph - N/A   Unknown
12:30 AM 77.0 °F - 68.0 °F 74% 29.95 in - ESE 18.4 mph - N/A   Unknown
1:00 AM 77.0 °F - 66.2 °F 69% 29.95 in - East 17.3 mph - N/A   Unknown
1:30 AM 77.0 °F - 68.0 °F 74% 29.92 in - East 15.0 mph - N/A   Unknown
2:00 AM 77.0 °F - 68.0 °F 74% 29.92 in - ESE 17.3 mph - N/A   Unknown
2:30 AM 77.0 °F - 68.0 °F 74% 29.89 in - East 15.0 mph - N/A   Unknown
3:00 AM 77 °F - 67 °F 64% 29.90 in - East 13.8 mph - -  
3:00 AM 77.0 °F - 68.0 °F 74% 29.89 in - East 13.8 mph - N/A   Unknown
3:30 AM 77.0 °F - 66.2 °F 69% 29.89 in - ESE 15.0 mph - N/A   Unknown
4:00 AM 77.0 °F - 68.0 °F 74% 29.92 in - ESE 17.3 mph - N/A   Unknown
4:30 AM 77.0 °F - 66.2 °F 69% 29.92 in - East 16.1 mph - N/A   Unknown
5:00 AM 77.0 °F - 66.2 °F 69% 29.92 in - East 17.3 mph - N/A   Unknown
5:30 AM 77.0 °F - 66.2 °F 69% 29.95 in - ESE 15.0 mph - N/A   Unknown
6:00 AM 77 °F - 66 °F 61% 29.95 in - ESE 15.0 mph - -  
6:00 AM 77.0 °F - 66.2 °F 69% 29.95 in - ESE 15.0 mph - N/A   Unknown
6:30 AM 77.0 °F - 68.0 °F 74% 29.98 in - ESE 12.7 mph - N/A   Unknown
7:00 AM 80.6 °F 83.2 °F 68.0 °F 65% 29.98 in - East 16.1 mph - N/A   Unknown
7:30 AM 80.6 °F 83.2 °F 68.0 °F 65% 29.98 in - East 15.0 mph - N/A   Unknown
8:00 AM 80.6 °F 82.3 °F 64.4 °F 58% 30.01 in - East 17.3 mph - N/A   Unknown
8:30 AM 82.4 °F 84.6 °F 66.2 °F 58% 30.01 in - East 17.3 mph - N/A   Unknown
9:00 AM 81 °F - 67 °F 53% 30.01 in - East 16.1 mph - -  
9:00 AM 80.6 °F 82.7 °F 66.2 °F 61% 30.01 in - East 16.1 mph - N/A   Unknown
9:30 AM 82.4 °F 85.4 °F 68.0 °F 62% 30.01 in - East 15.0 mph - N/A   Unknown
10:00 AM 82.4 °F 85.4 °F 68.0 °F 62% 30.01 in - East 15.0 mph - N/A   Unknown
10:30 AM 84.2 °F 86.6 °F 66.2 °F 55% 30.01 in - East 15.0 mph - N/A   Unknown
11:00 AM 82.4 °F 84.6 °F 66.2 °F 58% 30.01 in - East 16.1 mph - N/A   Unknown
11:30 AM 82.4 °F 84.6 °F 66.2 °F 58% 30.01 in - East 15.0 mph - N/A   Unknown
12:00 PM 82 °F - 64 °F 44% 29.99 in - East 15.0 mph - -  
12:00 PM 82.4 °F 83.9 °F 64.4 °F 54% 29.98 in - East 15.0 mph - N/A   Unknown
12:30 PM 82.4 °F 84.6 °F 66.2 °F 58% 29.98 in - East 15.0 mph - N/A   Unknown
1:00 PM 82.4 °F 84.6 °F 66.2 °F 58% 29.98 in - East 15.0 mph - N/A   Unknown
1:30 PM 82.4 °F 84.6 °F 66.2 °F 58% 29.95 in - East 16.1 mph - N/A   Unknown
2:00 PM 82.4 °F 84.6 °F 66.2 °F 58% 29.95 in - East 18.4 mph - N/A   Unknown
2:30 PM 80.6 °F 83.2 °F 68.0 °F 65% 29.95 in - East 19.6 mph - N/A   Unknown
3:00 PM 80 °F - 67 °F 55% 29.93 in - East 18.4 mph - -  
3:00 PM 80.6 °F 82.7 °F 66.2 °F 61% 29.92 in - East 18.4 mph - N/A   Unknown
3:30 PM 80.6 °F 82.7 °F 66.2 °F 61% 29.92 in - East 17.3 mph - N/A   Unknown
4:00 PM 80.6 °F 82.7 °F 66.2 °F 61% 29.92 in - East 16.1 mph - N/A   Unknown
4:30 PM 80.6 °F 82.7 °F 66.2 °F 61% 29.92 in - East 17.3 mph - N/A   Unknown
5:00 PM 78.8 °F - 66.2 °F 65% 29.92 in - East 18.4 mph - N/A   Unknown
5:30 PM 78.8 °F - 66.2 °F 65% 29.92 in - East 19.6 mph - N/A   Unknown
6:00 PM 78 °F - 65 °F 57% 29.93 in - East 20.7 mph - -  
6:00 PM 78.8 °F - 66.2 °F 65% 29.92 in - East 20.7 mph - N/A   Unknown
6:30 PM 77.0 °F - 64.4 °F 65% 29.95 in - ESE 21.9 mph - N/A   Unknown
7:00 PM 78.8 °F - 66.2 °F 65% 29.95 in - ESE 21.9 mph - N/A   Unknown
7:30 PM 78.8 °F - 68.0 °F 69% 29.95 in - ESE 21.9 mph - N/A   Unknown
8:00 PM 77.0 °F - 66.2 °F 69% 29.98 in - ESE 23.0 mph - N/A   Unknown
8:30 PM 77.0 °F - 64.4 °F 65% 29.98 in - ESE 20.7 mph - N/A   Unknown
9:00 PM 77 °F - 65 °F 59% 29.99 in - ESE 20.7 mph - -  
9:00 PM 77.0 °F - 66.2 °F 69% 29.98 in - ESE 20.7 mph - N/A   Unknown
9:30 PM 77.0 °F - 64.4 °F 65% 30.01 in - ESE 20.7 mph - N/A   Unknown
10:00 PM 77.0 °F - 64.4 °F 65% 30.01 in - ESE 18.4 mph - N/A   Unknown
10:30 PM 77.0 °F - 64.4 °F 65% 30.01 in - ESE 19.6 mph - N/A   Unknown
11:00 PM 77.0 °F - 64.4 °F 65% 30.01 in - ESE 19.6 mph - N/A   Unknown
11:30 PM 77.0 °F - 64.4 °F 65% 29.98 in - ESE 19.6 mph - N/A   Unknown